Weather in Ol'hovka

Russia / Volgograd Oblast     49°51′26″N   44°33′48″E
temp.,
°C
wind,
m/s
gust,
m/s
humid.,
%
clouds,
%
prec.,
mm/h
press.,
hPa
HPBL,
m
25 july, sun
sun2500:00+20n236212 0.0 101571
03:00+19nne226230 0.0 101652
06:00+19ne34584 0.0 1017145
09:00+25ne324016 0.0 10181063
12:00+27ne333492 0.0 10182785
15:00+27ene3234100 0.0 10182149
18:00+25ne454090 0.0 1019498
21:00+21nne464894 0.0 1020104
26 july, mon
mon2600:00+20ne4104327 0.0 1022278
03:00+18ene35525 0.0 102294
06:00+19ene36540 0.0 1023153
09:00+25e44351 0.0 10231019
12:00+27ene33280 0.0 10232428
15:00+28nne33264 0.0 10212841
18:00+27nne553116 0.0 10211117
21:00+21ne48412 0.0 1022136
27 july, tue
tue2700:00+19ene410470 0.0 1022174
03:00+18e35520 0.0 102271
06:00+19e24500 0.0 1023116
09:00+25ene33310 0.0 10221152
12:00+27nne44278 0.0 10212575
15:00+29n442634 0.0 10192899
18:00+27nne54295 0.0 10191595
21:00+24nne22343 0.0 101921
28 july, wed
wed2800:00+20n22494 0.0 101913
03:00+18n22553 0.0 101914
06:00+20nnw23530 0.0 101992
09:00+26nne22370 0.0 1019835
12:00+29nne11270 0.0 10182670
15:00+30nnw222429 0.0 10163123
18:00+30nw12248 0.0 10162952
21:00+24se11355 0.0 101613
29 july, thu
thu2900:00+22sw23376 0.0 101518
03:00+21sw343814 0.0 101549
06:00+22ssw474065 0.0 1014158
09:00+29wsw793161 0.0 10131013
12:00+32wsw792544 0.0 10123011
15:00+28wnw6104097 0.0 1011620
18:00+26wsw611542 0.6 1011414
21:00+23wnw376513 0.8 1011117